Погода в Саскылахе

Россия / Республика Саха (Якутия)     71°57′55″N   114°05′35″E
темп.,
°C
ветер,
м/с
пор.,
м/с
влажн.,
%
обл.,
%
осадки,
мм/ч
давл.,
гПа
погр.,
м
3 марта, ср
ср300:00−41св1110065 0.0 102718
03:00−42ссв0010057 0.0 102718
06:00−42с1110039 0.0 102718
09:00−42св1110051 0.0 102718
12:00−40с009662 0.0 102818
15:00−39ссз119678 0.0 102718
18:00−41ссз1110066 0.0 102818
21:00−41сз1110074 0.0 102918
4 марта, чт
чт400:00−41сз11100100 0.0 102918
03:00−40зсз1299100 0.0 102818
06:00−40сз1299100 0.0 102918
09:00−41зсз11100100 0.0 102918
12:00−39зсз119771 0.0 102918
15:00−37з019446 0.0 102919
18:00−39ююв119922 0.0 103019
21:00−39ю229729 0.0 103019
5 марта, пт
пт500:00−38ююв22975 0.0 103019
03:00−38ююв339610 0.0 102919
06:00−37ююв339655 0.0 102921
09:00−37ююв339666 0.0 102833
12:00−35ююв359474 0.0 102897
15:00−33ююв469377 0.0 1028150
18:00−34ююв459466 0.0 102864
21:00−35юв459463 0.0 102865
6 марта, сб
сб600:00−35юв459542 0.0 102761
03:00−35юв449723 0.0 102757
06:00−35юв45980 0.0 102681
09:00−35юв45980 0.0 102574
12:00−33юв48960 0.0 1024150
15:00−32юв59940 0.0 1022194
18:00−32юв599540 0.0 1021163
21:00−29юв6119468 0.0 1020273
7 марта, вс
вс700:00−28юв61096100 0.1 1018288
03:00−28юв61096100 0.1 1016280
06:00−27юв6996100 0.1 1015298
09:00−27юв6996100 0.2 1014311
12:00−26юв6996100 0.1 1012343
15:00−24юв6894100 0.3 1011406
18:00−24юв489599 0.1 1010335
21:00−25юв339892 0.1 101080